ISS - Orbit

View from above orbital plane
View from above orbital plane
View from above satellite
View from above satellite

Ground track
Ground track

The orbit data is extracted from the following two-line orbital elements,

1 25544U 98067A   13138.47846693  .00018095  00000-0  32067-3 0  8323
2 25544 051.6483 255.6378 0009195 328.3948 118.9189 15.50284857830098
Epoch (UTC): 18 May 2013 11:28:59
Eccentricity: 0.0009195
inclination: 51.6483°
perigee height: 409 km
apogee height: 422 km
right ascension of ascending node: 255.6378°
argument of perigee: 328.3948°
revolutions per day: 15.50284857
mean anomaly at epoch: 118.9189°
orbit number at epoch: 83009

The dashed part of the orbit path shows where the satellite is in the earth's shadow,  

Developed and maintained by Chris Peat, Heavens-Above GmbH. Please read the updated FAQ before sending e-mail. Imprint. DLR